Theta_e
352 353 354 350 351 353 354 353 354 354 354 353 352 350 350 350 353 352 350 351 349 350 351 350 349 350 347 348 350 348 348 348 347 347 348 350 351 358 361 361 360 360 359 359 359 359 358 359 357 356 356 356 356 355 355 355 356 355 354 354 354 354 354 354 353 353 353 353 352 352 351 351 351 351 351 351 351 352 352 352 352 352 353 353 353
352 352 354 351 352 353 355 353 354 354 354 352 352 351 351 351 352 351 349 350 349 349 349 348 348 346 346 347 349 349 348 348 347 347 349 351 351 358 362 361 360 360 359 359 359 359 359 357 358 357 356 356 356 356 355 355 355 355 355 354 354 354 354 353 353 353 352 353 352 353 352 352 352 352 351 352 352 352 352 351 354 354 353 353 354
352 352 353 353 353 353 354 353 352 354 354 353 354 354 352 353 353 351 349 348 349 351 352 349 346 345 347 345 348 348 349 349 348 348 350 351 352 353 358 362 361 360 359 359 359 359 359 358 357 358 357 356 356 356 356 355 355 355 355 355 354 354 354 353 353 353 353 353 353 353 353 353 353 352 352 353 353 353 353 354 352 352 353 353 352
352 353 353 352 352 352 353 352 352 352 356 353 353 356 354 355 355 354 354 353 349 347 353 348 346 346 343 344 347 348 349 349 348 348 350 351 352 353 353 359 361 360 360 359 359 359 358 358 357 356 357 356 357 356 356 356 355 356 355 355 354 354 354 354 353 353 353 353 353 354 353 353 353 353 353 353 353 353 353 352 353 353 352 353 352
351 353 359 351 351 351 352 355 352 352 354 356 356 356 355 355 353 358 350 347 347 347 352 347 345 345 344 343 346 347 348 349 348 348 349 351 351 351 351 355 356 361 360 359 360 358 357 358 358 358 357 358 357 357 356 356 356 356 355 355 355 355 354 354 354 354 354 353 354 354 354 354 353 352 353 353 352 352 352 352 352 352 353 353 352
351 352 354 350 350 351 351 352 353 352 353 355 353 353 353 352 351 351 358 353 345 347 347 346 345 344 341 340 344 346 348 349 348 348 349 351 352 352 352 352 353 354 357 360 360 359 358 357 357 357 358 357 357 357 357 357 356 356 356 355 355 355 355 355 355 354 353 354 354 354 352 351 352 351 352 352 352 352 352 351 352 352 352 353 353
353 352 353 350 350 350 351 352 353 353 353 355 352 351 350 352 353 347 347 347 347 353 346 343 344 345 343 341 343 346 348 348 349 348 349 351 352 353 352 352 351 352 355 354 359 360 360 358 358 358 358 358 358 356 357 356 355 356 355 355 356 356 356 355 354 353 353 353 353 352 353 353 353 351 350 351 351 352 352 352 351 352 353 352 353
353 353 352 351 351 350 351 353 354 354 353 354 352 352 351 351 353 349 347 346 352 345 345 343 344 345 345 339 341 348 345 347 348 349 351 351 352 352 352 352 352 351 359 351 352 357 360 358 359 359 358 358 357 357 356 355 353 353 352 352 355 354 356 355 354 354 353 354 353 352 352 352 351 350 352 351 352 352 352 352 352 352 352 352 352
355 355 353 353 352 352 352 354 356 354 353 355 353 353 352 353 351 355 349 345 345 345 344 343 343 344 342 337 342 347 345 346 348 349 352 350 350 352 352 351 353 360 355 352 350 351 358 361 359 359 359 359 357 356 355 355 354 355 355 354 355 355 355 355 354 351 353 354 354 353 353 353 353 351 352 352 352 352 352 351 351 351 352 351 352
355 355 353 354 354 353 353 355 356 354 353 355 354 351 351 351 350 351 351 346 343 342 342 341 344 344 339 339 341 343 344 345 347 354 348 349 349 350 351 351 354 354 354 352 351 349 351 357 359 359 359 358 358 358 357 357 356 356 355 355 355 355 354 354 354 353 353 354 353 353 353 353 353 352 351 352 352 352 352 351 351 351 351 351 351
355 355 353 355 354 354 354 356 357 354 355 355 352 352 352 350 348 347 354 347 345 343 342 343 342 342 337 338 340 342 343 344 348 347 346 348 349 353 352 350 352 352 350 350 349 349 349 349 350 351 353 359 358 359 358 357 356 357 356 355 356 355 355 355 353 352 353 353 353 353 353 353 352 352 352 352 351 351 351 351 351 351 351 351 351
356 354 354 355 352 354 355 357 356 354 354 353 349 349 350 350 347 347 349 351 354 348 344 345 339 342 342 336 339 340 341 346 345 344 347 346 348 351 350 349 349 349 349 348 350 349 348 348 352 348 350 355 358 358 358 357 356 356 356 356 355 355 354 354 354 354 354 354 353 353 353 353 352 352 352 351 351 351 350 350 351 351 351 351 351
358 354 353 359 353 355 355 357 356 355 355 354 351 350 350 351 351 352 349 346 345 347 347 338 334 332 332 332 335 339 346 346 342 343 345 345 347 349 348 349 348 347 346 346 346 347 347 347 349 346 347 347 352 358 358 357 357 356 356 356 356 356 355 355 355 355 354 354 353 353 352 352 351 351 350 350 349 350 350 350 349 350 351 351 351
358 355 354 356 352 354 355 356 356 355 356 355 351 356 353 351 351 350 352 346 343 347 347 338 332 328 327 327 329 331 340 341 340 341 342 343 345 346 346 348 348 347 346 345 344 345 345 346 346 347 346 346 346 347 349 351 354 359 356 356 356 355 355 355 355 354 353 353 352 352 351 352 351 350 349 347 349 349 349 348 349 349 350 350 348
356 357 353 355 353 354 355 356 356 356 354 352 352 352 351 352 351 348 346 347 348 351 346 337 331 332 330 327 321 323 331 331 334 338 340 340 343 344 346 348 348 346 345 344 343 343 345 345 345 345 345 346 346 347 348 354 353 359 357 357 356 356 354 354 355 354 354 353 352 351 350 350 349 349 348 348 348 349 348 347 349 349 348 346 343
355 357 355 354 353 353 354 355 356 356 355 354 351 350 349 349 349 349 346 343 342 344 351 340 337 331 326 324 321 320 317 321 325 333 337 339 340 342 345 347 347 345 344 345 346 343 343 344 344 345 345 345 346 346 349 345 354 357 356 356 355 355 355 354 354 354 354 354 352 351 350 350 348 348 348 347 349 349 348 348 349 346 344 344 343
355 357 357 353 353 354 354 354 355 356 355 354 353 351 351 350 352 350 347 344 342 341 346 345 339 335 332 323 319 319 317 318 322 323 332 334 337 341 344 346 345 345 346 344 342 343 344 344 344 344 345 345 345 345 346 347 349 351 352 357 356 354 354 354 354 354 353 352 352 351 350 348 347 348 348 348 347 348 347 347 343 343 343 343 343
355 356 357 355 353 354 354 354 355 356 355 354 355 352 351 351 352 352 349 346 344 341 339 349 344 345 335 328 323 320 319 321 321 319 330 335 333 337 340 345 344 345 343 342 343 343 347 346 343 346 347 346 346 346 346 345 350 346 343 346 355 354 355 354 354 353 353 353 351 350 349 347 347 349 348 347 347 345 346 343 344 342 343 343 343
356 356 356 356 354 353 355 355 356 357 358 353 352 354 355 354 354 352 351 352 343 340 338 339 339 341 344 341 340 338 327 322 318 319 321 324 327 331 334 338 341 342 342 342 342 342 344 346 346 347 347 347 346 346 346 347 354 353 355 356 356 354 355 355 355 353 353 351 350 348 349 349 349 349 346 345 344 343 343 341 341 342 342 342 343
356 355 356 356 355 353 355 355 356 357 358 355 354 355 356 356 356 355 353 352 346 343 340 336 338 336 340 337 338 342 331 328 324 324 320 320 321 327 330 332 334 338 341 341 341 342 342 344 345 345 346 346 346 345 345 344 344 347 352 354 355 354 355 355 354 352 350 349 351 349 351 351 350 347 345 345 345 344 343 342 343 343 343 343 343
356 355 355 355 357 354 354 355 355 356 360 357 356 356 356 356 355 353 352 350 347 345 342 339 336 338 334 332 331 331 330 333 333 328 323 318 319 321 323 328 331 332 335 338 339 341 343 343 345 347 348 348 346 344 343 343 344 344 352 355 355 354 354 354 353 352 349 349 349 349 350 349 347 345 344 345 345 345 344 343 343 344 345 345 346
354 355 355 355 356 356 354 355 356 357 360 358 357 356 356 355 355 354 354 351 348 347 343 341 338 337 334 333 331 330 329 328 327 324 324 322 321 321 323 324 323 327 331 333 336 339 341 342 343 346 346 346 346 344 342 342 342 343 348 354 355 355 355 354 353 352 350 349 349 349 348 346 344 345 344 344 345 346 345 345 346 346 347 347 347
354 354 354 355 355 356 355 355 357 359 360 357 357 357 357 356 356 354 353 352 349 346 349 343 339 337 333 331 331 329 328 326 325 327 323 321 321 322 322 325 325 324 327 332 336 337 339 340 340 342 343 344 345 344 342 339 345 346 349 353 355 354 354 354 352 351 350 350 349 348 348 347 346 346 346 346 347 348 348 348 348 348 347 346 346
352 353 353 354 354 355 356 356 357 357 358 358 358 358 358 357 355 354 353 352 350 349 347 344 339 337 335 332 331 332 330 328 328 330 326 324 324 321 322 323 325 326 329 330 333 335 337 338 339 341 342 342 344 344 343 341 341 347 349 351 354 354 354 354 352 350 349 350 349 349 349 350 350 350 349 349 349 349 348 348 347 347 347 347 347
351 351 352 353 354 353 354 355 355 357 358 358 358 358 357 357 356 355 354 352 350 349 347 346 343 339 339 336 332 333 332 331 331 331 329 327 325 321 323 324 323 323 326 330 328 332 336 337 338 339 340 340 342 342 342 341 338 345 350 348 352 353 352 352 350 347 347 348 348 349 349 350 351 350 348 349 350 350 348 348 348 348 348 346 345
351 351 353 354 354 354 355 355 356 356 357 358 358 358 357 357 356 355 354 353 350 349 348 347 343 342 339 336 334 333 334 336 332 334 332 328 324 324 323 327 325 324 325 327 327 329 330 335 337 338 338 338 339 340 340 340 338 345 350 346 347 351 351 350 350 347 346 347 347 347 348 349 351 351 350 348 350 350 349 347 346 346 345 345 345
351 352 353 353 354 354 354 355 355 356 357 358 359 358 358 357 356 355 355 353 351 350 348 347 344 341 337 336 337 333 333 335 335 335 336 332 329 327 327 324 324 324 325 325 325 327 328 330 336 336 337 338 337 338 339 338 341 344 348 348 340 348 349 348 348 347 344 345 347 347 347 348 349 350 349 349 349 349 348 348 347 347 346 347 349
352 352 352 353 353 353 354 355 356 356 357 357 357 357 356 356 355 355 353 355 352 349 349 347 346 342 340 337 334 335 335 334 337 335 335 336 334 331 331 327 324 320 320 323 323 326 329 328 330 334 336 337 338 338 342 342 338 344 348 344 338 335 344 347 347 346 344 342 344 346 347 347 348 348 348 348 348 348 348 347 347 347 347 348 349
351 353 353 353 353 353 353 355 356 356 357 357 357 357 356 356 355 354 353 353 353 350 350 347 346 344 341 338 336 335 334 334 335 337 335 334 335 333 332 330 327 323 319 318 321 324 326 330 328 329 334 335 337 338 338 338 340 342 339 341 339 331 334 340 343 343 343 343 341 342 344 344 344 344 345 345 347 347 348 347 348 348 348 348 348
352 354 353 353 352 357 353 354 356 356 357 358 357 357 356 355 355 354 355 353 352 352 351 349 347 344 343 341 338 336 336 335 334 336 335 334 333 333 332 331 330 327 323 321 322 324 325 327 330 329 330 334 336 337 337 337 343 344 339 337 338 335 335 335 337 338 339 339 338 337 338 339 339 340 341 343 344 346 347 347 348 348 348 348 348
352 352 352 352 352 353 353 353 354 356 357 357 358 357 356 355 354 354 354 353 352 351 351 350 348 345 342 341 340 338 337 336 335 336 338 334 333 333 332 332 331 330 327 324 321 325 328 328 330 332 331 332 335 336 337 338 342 344 340 338 338 342 341 336 336 336 336 336 335 335 335 335 335 336 338 339 341 343 344 346 347 347 348 348 348
351 352 352 352 352 352 353 353 354 355 355 357 357 357 356 355 355 354 354 352 352 351 352 351 350 346 343 341 341 340 339 336 336 336 335 337 335 333 333 332 331 330 329 326 324 327 328 329 329 331 332 332 333 334 334 337 340 347 341 340 339 345 343 337 338 337 336 335 334 334 334 333 332 333 336 338 340 342 344 346 346 347 346 346 346
352 352 352 352 352 352 353 353 353 353 354 355 357 357 356 355 355 354 354 352 352 351 351 350 350 347 345 343 342 341 340 339 338 337 337 336 336 336 335 333 332 331 329 327 325 327 328 329 330 331 332 332 331 334 334 334 335 338 344 341 341 340 340 338 337 338 337 335 334 334 333 332 332 333 335 337 339 341 343 344 344 343 342 343 344
352 353 353 353 353 352 352 352 353 353 354 354 356 356 356 355 355 355 354 352 351 351 350 349 349 349 347 344 344 343 341 340 339 338 337 337 337 335 335 335 333 332 332 330 327 327 327 327 330 332 333 333 332 333 334 333 334 336 336 339 340 340 339 338 337 337 337 336 335 334 333 332 331 332 334 335 337 339 340 341 341 339 339 341 339
352 353 353 353 353 353 352 352 353 353 354 354 355 355 355 355 354 354 354 353 352 351 350 350 350 349 346 345 345 344 343 341 340 339 338 337 337 337 336 336 335 334 333 332 329 327 327 328 328 330 332 333 333 333 334 335 336 336 335 336 338 340 340 339 338 338 338 337 336 334 333 333 332 332 332 332 334 336 337 337 336 336 337 335 334
351 353 354 354 354 353 352 351 351 353 353 354 354 355 355 355 354 354 354 353 353 353 352 351 350 349 347 346 345 345 343 341 341 340 339 338 336 337 337 336 335 335 334 334 332 330 329 328 327 330 332 332 333 333 333 335 334 334 335 336 338 338 338 339 337 337 338 337 336 335 335 334 332 331 331 331 331 331 332 333 332 332 332 333 332
352 352 353 354 353 353 353 352 352 352 353 354 354 354 355 356 355 355 354 354 353 353 353 352 354 350 349 347 347 345 343 342 342 341 340 338 337 336 336 336 336 336 336 335 334 332 330 329 329 328 331 332 333 332 333 333 332 333 334 336 336 336 337 338 339 339 339 337 337 336 335 334 334 333 332 331 330 330 330 331 330 330 330 329 327
353 353 352 353 354 353 353 353 353 352 353 353 354 354 354 355 355 355 355 354 354 353 353 353 352 351 350 349 348 346 344 343 343 343 342 340 339 337 336 336 336 336 335 334 334 334 332 332 331 331 328 331 331 332 333 333 332 331 332 333 334 335 334 334 337 340 341 340 338 338 337 335 334 332 333 332 331 329 329 329 330 329 327 325 322
353 353 353 353 354 354 353 353 353 353 353 353 354 354 354 354 355 354 354 354 354 354 354 354 353 353 352 350 349 347 345 344 344 343 343 342 341 339 339 337 337 335 335 334 334 333 333 332 332 331 331 331 331 331 332 334 334 333 331 330 331 334 334 334 334 337 340 340 340 339 338 338 337 335 330 328 329 330 329 327 327 327 326 324 322
350 352 353 353 354 354 354 354 353 353 352 353 353 354 354 354 354 354 354 354 354 353 353 354 354 353 353 352 351 349 347 346 345 344 343 342 342 340 340 338 337 335 335 334 333 333 333 332 332 333 331 331 328 331 332 330 330 331 332 331 329 330 332 334 334 334 335 337 337 338 338 337 336 335 331 330 330 330 328 327 329 330 328 324 323
350 350 352 354 354 353 354 354 354 354 353 353 353 354 353 354 354 354 354 354 354 353 353 353 353 354 354 354 353 352 351 348 343 342 342 341 343 341 341 339 337 336 335 334 334 332 332 332 333 333 332 331 331 330 330 330 331 332 330 332 331 332 332 332 334 335 335 334 335 336 336 337 337 336 335 334 333 332 330 330 331 332 329 325 323
350 350 349 350 352 353 353 353 354 354 354 354 346 335 339 354 354 354 354 354 354 353 353 352 352 353 354 354 355 351 343 341 339 337 335 335 336 342 343 341 339 337 336 335 333 333 332 331 332 332 331 331 332 332 332 333 334 331 330 330 330 332 327 330 332 334 336 335 333 333 335 337 336 335 334 333 334 337 331 329 329 329 329 326 325
350 349 350 348 349 351 352 353 352 353 354 354 337 331 331 335 350 354 353 353 354 354 353 352 351 352 353 354 354 353 347 342 342 335 334 334 334 333 335 338 339 340 337 335 335 334 333 332 333 332 331 331 332 333 333 333 333 333 333 331 331 330 329 328 327 330 337 337 334 333 334 336 336 334 334 333 334 333 333 330 329 329 326 326 326
350 350 349 349 349 349 350 352 352 353 353 339 333 330 330 329 334 353 354 353 353 353 353 353 353 352 352 352 353 354 354 353 351 347 339 333 331 331 332 332 333 334 336 339 338 336 335 334 333 333 333 332 333 334 333 333 333 332 332 332 331 330 329 328 329 328 332 338 335 333 333 334 335 334 333 334 334 334 334 332 329 326 325 325 325
350 349 349 349 349 349 349 349 350 352 353 338 331 329 329 328 328 337 353 354 353 353 353 353 353 353 352 351 351 352 354 346 348 350 349 347 333 329 329 330 331 330 330 331 333 341 340 336 335 334 334 335 334 335 336 335 335 331 330 331 332 331 331 330 331 331 332 337 335 332 331 333 333 334 333 335 335 334 334 331 329 327 325 325 325
348 349 349 349 349 349 349 349 349 351 352 338 330 326 326 326 327 330 349 353 353 353 353 353 353 353 353 352 351 351 351 352 351 350 350 348 348 345 339 337 337 337 330 328 328 329 337 340 338 336 338 338 336 337 338 337 334 332 332 331 332 332 331 331 334 334 334 338 334 331 329 330 332 333 332 334 335 334 334 331 328 327 325 324 324
348 348 348 348 349 350 350 350 349 350 352 335 328 324 323 323 324 326 345 351 352 353 353 353 353 353 353 353 352 351 351 351 352 350 350 349 348 348 346 344 342 341 341 340 338 337 337 338 340 340 341 341 340 340 339 339 338 337 337 335 335 334 334 335 334 334 332 336 336 332 329 329 331 331 332 334 334 334 334 329 327 326 326 324 323
349 349 349 349 349 349 350 350 350 349 351 333 326 324 322 321 323 335 343 348 350 352 352 353 353 354 354 354 353 352 352 351 345 334 339 350 349 348 347 347 346 346 345 337 335 336 341 342 342 342 343 344 338 344 343 340 338 338 339 339 336 333 332 331 330 333 333 335 337 334 331 329 330 331 332 334 333 332 332 333 328 326 326 324 324
348 348 348 348 349 349 349 350 349 349 350 338 325 321 320 320 322 339 343 346 349 350 352 353 353 353 354 354 353 353 353 352 343 332 330 334 348 348 347 347 347 347 347 348 334 328 329 328 328 330 330 330 330 328 326 328 336 337 337 335 333 334 331 329 330 330 331 332 335 336 333 331 328 331 330 330 331 331 331 331 332 327 325 324 323
348 348 348 348 348 349 348 349 350 349 349 341 324 319 318 318 325 341 344 346 347 349 350 352 353 353 354 349 355 354 353 353 337 330 329 333 344 348 348 347 347 346 347 349 349 342 327 326 326 327 328 328 328 328 328 326 324 329 338 334 336 335 332 332 330 331 332 332 334 337 332 332 329 329 329 321 322 325 329 330 330 329 326 323 320
350 349 349 348 348 348 348 349 343 347 350 342 323 319 317 316 325 342 346 346 346 348 349 350 352 353 353 351 346 345 349 347 333 329 327 331 345 347 348 348 347 347 348 349 348 348 347 342 339 337 337 335 336 336 337 329 327 336 336 338 339 336 333 333 333 332 329 331 334 338 332 331 329 328 329 320 322 324 324 328 329 328 326 326 325
Wind_Speed
3 3 2 3 2 2 2 3 2 2 1 2 1 2 2 2 1 2 1 0 0 1 1 2 2 3 4 3 3 4 4 3 3 3 2 2 2 5 10 9 9 9 9 9 9 9 8 8 7 7 7 7 6 6 6 6 5 5 5 4 4 3 3 3 2 2 1 1 0 1 1 2 2 2 3 3 3 4 5 5 6 7 7 8 8
4 3 4 4 3 2 2 3 3 3 2 3 2 1 3 3 2 2 2 0 0 0 0 0 1 2 3 4 4 4 5 4 4 4 3 2 2 3 10 9 9 9 9 9 9 9 8 8 8 8 7 8 7 7 6 6 6 5 5 5 4 4 3 3 2 2 1 1 2 3 3 3 4 4 4 5 5 5 6 6 5 7 8 9 8
4 4 3 4 3 3 4 2 2 3 2 3 1 2 2 2 3 2 2 1 0 0 0 1 2 2 1 4 5 4 5 4 4 3 3 4 3 3 4 10 10 9 9 9 9 8 8 8 8 7 7 7 8 7 7 6 7 6 5 5 5 4 4 3 3 2 2 2 2 3 3 4 4 4 5 6 6 6 6 7 8 8 9 9 10
4 4 4 4 4 4 3 3 4 3 3 2 2 2 3 3 2 1 0 0 1 1 0 1 1 3 0 3 4 5 5 5 4 4 4 4 3 3 2 4 10 9 9 9 8 8 8 8 7 8 7 7 8 8 7 7 7 7 6 6 5 5 4 4 4 4 4 4 4 4 5 5 5 5 5 6 7 7 7 7 7 7 7 8 9
5 5 5 4 4 4 3 4 3 3 2 2 1 1 2 1 2 0 1 1 2 2 1 3 3 4 1 3 4 4 4 4 4 4 4 4 4 3 2 2 2 9 9 9 9 9 8 8 8 8 8 8 8 8 8 7 7 8 7 6 6 6 5 5 6 6 5 5 5 5 6 6 6 8 7 7 5 7 7 8 7 7 8 10 10
5 4 4 5 4 4 4 4 3 3 2 2 2 2 2 2 2 1 1 2 2 2 3 3 4 3 1 3 4 4 4 4 4 4 4 4 4 3 3 2 2 2 3 9 8 9 8 8 8 8 8 8 8 9 8 9 9 8 8 7 7 7 6 6 6 5 7 7 6 5 6 4 5 5 6 5 6 6 6 7 8 8 9 9 10
5 6 5 5 5 4 4 5 3 2 3 3 3 2 2 3 1 2 1 1 0 1 1 2 1 3 2 3 4 4 4 5 4 4 4 4 4 4 3 3 2 1 2 1 6 8 7 8 8 8 8 8 8 8 9 9 7 8 6 7 8 8 7 7 6 6 6 6 6 5 6 5 4 6 9 5 5 6 6 7 8 8 8 9 10
5 5 5 5 5 5 5 4 3 3 3 3 2 4 3 3 3 1 1 2 1 1 0 2 1 2 2 3 3 4 5 5 5 4 4 4 4 3 3 3 2 2 4 2 2 4 8 8 8 8 8 8 8 7 7 8 5 7 3 8 8 7 7 7 6 6 5 5 5 3 5 6 5 4 6 5 6 6 6 7 6 7 8 9 9
5 5 5 5 5 5 5 4 3 4 4 3 3 4 3 3 3 2 2 2 1 2 1 1 2 1 2 2 4 5 5 6 5 4 4 3 3 3 3 2 3 6 3 3 3 2 4 6 7 8 8 8 7 7 5 6 9 7 7 7 9 8 8 7 5 5 5 5 4 5 4 5 3 3 4 4 4 5 6 6 7 8 8 8 9
6 5 5 5 5 5 4 4 4 4 4 3 4 2 3 3 4 2 2 2 2 1 1 1 2 2 2 2 4 5 5 5 3 3 4 4 3 3 3 2 4 3 3 2 2 2 2 4 7 7 7 7 7 6 6 7 8 7 8 7 9 9 6 6 4 6 5 5 5 3 3 3 4 3 4 5 6 6 6 6 6 7 8 8 8
5 5 5 5 5 5 5 4 4 4 4 4 3 3 3 3 3 3 1 2 2 1 1 0 2 1 3 2 3 4 3 1 2 3 3 3 2 2 2 3 3 3 2 2 2 2 2 2 2 1 2 6 6 6 6 6 6 6 6 6 7 6 5 5 5 6 6 6 5 4 5 5 5 5 5 6 6 6 6 6 6 7 7 7 7
5 6 6 5 5 5 5 4 4 4 4 4 4 4 5 4 3 3 3 1 0 0 1 2 3 3 3 3 1 1 3 1 2 2 2 2 1 1 2 1 3 2 2 2 2 2 2 3 2 2 1 2 6 6 6 6 6 6 6 6 7 5 5 5 6 5 6 6 5 5 5 5 5 5 5 5 5 5 5 5 6 6 6 6 7
5 5 6 5 5 4 4 4 4 5 5 6 5 5 4 4 3 1 2 1 0 1 1 3 3 3 5 4 2 1 0 1 1 1 2 1 0 0 1 2 3 3 2 2 2 2 3 3 3 1 2 2 2 4 5 6 5 4 5 6 5 6 6 5 6 6 6 5 5 4 4 4 3 2 2 3 4 5 5 5 5 5 6 7 8
6 5 5 5 5 5 5 6 5 5 5 4 3 3 3 3 2 1 0 2 1 1 1 2 2 3 3 1 4 3 1 1 0 1 1 1 0 1 2 3 3 3 1 2 2 2 2 2 2 2 2 2 2 1 1 2 2 2 5 5 5 5 5 4 4 4 5 4 4 4 4 3 4 3 3 2 3 4 4 4 5 5 6 7 6
6 6 6 5 5 5 5 5 5 5 4 3 3 3 3 3 3 3 2 1 1 1 2 2 2 1 2 4 0 1 2 2 3 3 3 2 2 2 3 3 4 3 2 2 2 2 2 2 2 2 2 2 2 2 2 2 3 5 4 2 3 4 4 4 4 4 4 3 2 2 1 2 4 3 2 3 2 2 3 3 4 4 4 4 4
7 6 5 5 5 6 5 5 5 4 6 5 4 4 3 3 3 3 2 1 1 1 1 2 4 4 1 1 1 3 0 4 4 4 2 3 4 4 3 4 3 2 2 4 3 2 2 2 3 3 2 3 2 2 3 2 4 7 6 5 2 2 3 3 4 4 3 4 3 2 2 4 2 2 2 2 2 2 2 3 3 3 3 2 3
7 7 6 6 5 5 5 5 5 5 4 5 5 6 5 4 4 3 3 3 3 1 0 2 2 2 6 3 2 0 3 3 1 2 0 3 5 6 4 4 4 4 4 4 2 3 3 2 3 2 3 2 2 2 2 2 3 2 3 6 5 3 3 4 4 4 5 4 3 3 2 3 2 2 2 2 1 1 0 1 1 2 1 2 2
6 7 7 5 6 6 5 5 5 5 5 5 5 3 3 4 5 4 4 2 2 1 1 0 2 2 2 2 4 2 2 2 2 2 1 1 3 3 4 5 3 4 4 3 3 3 2 4 3 4 3 3 2 3 3 3 3 3 3 4 6 5 4 5 5 5 5 4 4 4 4 4 3 4 3 2 2 1 1 1 1 2 3 3 3
7 7 6 6 6 5 5 5 5 5 4 4 4 5 5 5 3 3 4 3 2 2 3 3 1 1 2 0 0 0 3 5 3 2 0 3 1 3 5 3 3 3 5 4 4 3 3 3 4 4 4 3 4 4 4 4 5 5 7 6 6 6 5 6 6 6 6 5 5 5 5 5 5 4 3 3 3 2 2 2 2 3 3 4 5
7 7 7 6 5 6 5 5 5 5 4 5 6 5 4 3 3 4 3 3 4 4 4 2 3 2 1 0 1 1 1 0 3 7 5 3 2 1 1 3 3 4 4 5 4 5 4 4 4 4 5 4 4 4 4 4 3 4 5 9 8 8 7 6 7 7 7 7 6 6 6 6 6 5 4 4 4 3 3 3 3 4 4 4 5
6 7 7 6 6 6 5 5 5 5 5 5 5 4 5 5 4 4 4 4 4 4 3 4 3 5 1 1 1 1 1 1 1 2 3 2 2 3 2 1 1 4 5 4 4 4 5 5 5 5 5 5 4 4 4 4 5 4 6 9 10 10 9 8 7 9 9 8 8 8 8 7 7 6 6 6 5 5 5 5 5 5 6 6 6
5 5 6 6 6 6 6 6 6 6 5 6 5 4 4 4 5 5 5 5 4 4 5 4 5 4 3 3 3 0 0 0 1 2 3 2 5 5 5 6 5 6 4 6 6 5 5 5 5 5 5 5 5 5 5 5 5 5 6 11 12 11 11 10 10 12 11 10 10 10 9 9 8 8 8 8 7 7 7 7 7 8 8 8 8
6 6 7 7 6 6 7 7 6 6 6 5 6 6 5 5 5 4 4 5 4 5 3 3 4 4 3 5 6 5 5 3 3 2 2 1 1 2 2 5 5 4 4 5 5 5 4 5 6 6 6 6 5 5 6 6 6 7 10 11 11 11 11 12 12 13 12 10 11 11 11 11 10 10 9 9 9 8 8 8 9 9 8 8 8
6 6 6 7 7 7 6 6 7 6 7 6 6 5 5 4 4 4 5 4 4 4 4 4 4 5 4 5 5 5 4 4 5 5 6 5 6 5 5 2 2 4 4 2 3 5 5 6 7 7 7 6 6 6 6 6 6 12 9 11 12 12 12 13 13 13 12 12 11 12 13 12 12 12 11 11 10 10 9 9 9 9 9 8 8
7 8 8 9 7 7 7 7 6 6 6 5 5 5 5 5 5 5 5 5 6 5 6 6 6 6 6 5 5 5 6 4 4 5 2 4 6 4 4 1 4 3 3 1 4 3 5 6 6 7 6 6 6 6 6 6 6 9 12 8 13 13 13 13 13 13 13 13 13 12 12 11 11 10 10 10 9 9 9 9 9 8 8 9 9
9 10 9 8 7 8 7 7 6 5 6 6 6 5 5 6 5 6 6 6 5 6 6 5 5 5 3 5 5 6 6 4 4 5 5 4 3 5 5 1 1 4 1 1 1 1 4 6 7 6 6 6 7 6 5 7 6 10 13 9 10 14 14 13 14 14 14 14 14 14 13 12 11 10 11 10 9 8 8 8 9 9 10 9 8
9 8 6 8 8 7 7 7 6 6 6 6 6 6 6 5 5 6 6 5 6 6 6 5 6 5 4 5 5 5 6 5 5 6 5 6 6 5 6 4 2 2 3 2 2 5 7 2 7 7 8 7 7 7 7 6 8 11 13 8 7 12 14 14 14 14 14 15 15 15 14 14 13 13 12 11 10 10 10 9 9 9 8 8 7
7 6 7 8 8 8 7 8 7 7 7 7 7 6 6 6 6 5 6 4 6 6 6 6 6 6 6 4 3 6 5 5 5 5 5 5 5 5 5 5 6 5 2 3 3 6 4 5 3 7 8 8 7 7 7 8 6 11 12 7 7 7 13 15 15 15 15 15 15 15 15 15 15 14 14 13 13 12 11 10 9 9 9 8 8
7 7 8 7 8 8 8 8 7 7 7 7 7 7 7 7 7 6 7 5 5 7 6 6 6 6 5 5 6 6 6 4 4 4 5 3 4 5 6 7 6 5 3 3 5 5 4 6 5 4 8 8 7 6 6 7 8 9 6 7 7 7 10 14 15 15 15 15 15 15 15 15 15 14 14 14 13 13 12 11 10 9 9 9 8
8 7 7 8 8 8 8 8 8 7 8 8 8 8 7 7 7 7 6 5 6 5 6 6 6 5 5 5 5 6 5 4 5 5 4 5 5 5 5 5 6 7 5 5 7 5 4 3 5 5 3 7 7 6 6 8 9 10 7 8 8 8 12 14 15 15 15 15 15 15 15 14 14 14 14 14 14 13 13 12 11 10 10 9 8
7 7 7 8 8 8 8 8 7 8 8 8 8 7 7 7 7 7 6 6 6 7 7 6 6 5 5 6 5 6 5 5 4 4 4 4 5 5 5 4 5 5 6 5 4 6 5 6 6 5 4 5 6 7 6 7 8 10 9 8 9 12 14 11 14 15 15 15 15 14 14 14 14 14 14 13 13 13 13 12 12 11 11 10 9
8 8 8 8 8 9 8 9 9 8 9 8 8 8 7 8 7 7 6 6 7 8 7 6 5 5 6 6 6 7 5 4 5 5 5 4 4 5 5 6 6 5 4 5 7 11 4 6 5 4 5 5 4 6 7 6 7 11 9 9 9 11 9 8 12 15 15 15 15 15 15 15 14 14 14 14 14 13 12 11 12 11 11 10 10
7 8 9 9 9 10 10 9 10 9 9 9 8 8 8 8 8 8 7 7 8 8 6 7 6 5 6 7 7 7 4 5 6 6 5 5 4 5 4 5 6 5 6 6 7 11 5 4 4 5 2 3 3 6 7 7 6 7 8 9 8 8 8 8 8 12 15 15 16 16 16 15 15 15 15 15 14 13 13 13 13 12 11 11 10
8 9 10 9 9 10 10 10 10 10 9 9 9 8 8 9 9 7 7 8 9 8 6 8 7 7 6 7 8 7 5 7 6 7 7 6 5 5 6 6 6 6 6 6 8 6 12 1 4 3 3 4 5 3 8 8 8 5 8 8 7 8 8 8 8 8 14 15 16 17 17 16 15 15 15 15 15 14 13 13 13 12 12 11 11
7 9 10 10 10 10 10 10 10 10 10 10 9 9 9 10 10 9 8 9 9 9 9 10 9 7 7 8 9 7 4 6 7 7 6 6 5 6 7 6 7 7 6 7 6 8 10 9 4 4 4 4 7 6 6 7 7 6 7 8 9 7 7 8 8 7 12 14 16 16 17 16 16 15 15 15 15 14 14 13 13 12 12 12 12
9 9 9 10 9 9 10 10 10 10 10 10 9 10 11 10 10 10 9 9 10 10 10 10 9 8 9 9 10 9 6 7 8 7 7 6 6 7 7 7 6 7 6 6 8 8 6 8 4 6 3 4 6 5 4 4 6 6 7 7 5 7 7 7 8 8 10 15 15 16 16 16 16 16 16 15 15 14 14 14 13 13 13 13 12
11 9 9 8 9 10 11 12 11 11 11 10 10 10 10 9 10 10 10 10 10 11 11 10 9 9 9 10 11 8 7 9 9 8 8 8 8 7 8 7 7 7 5 6 7 6 7 10 7 3 3 4 3 3 3 5 5 5 4 6 7 8 8 7 7 8 11 14 14 15 15 16 16 16 16 16 15 15 14 14 14 13 14 14 13
11 11 11 9 10 12 12 11 11 11 10 10 11 11 11 10 10 10 10 10 11 11 10 10 10 9 9 10 10 8 8 10 11 10 9 9 8 8 9 8 8 6 6 6 5 6 7 9 8 8 2 5 4 4 4 5 6 6 6 6 4 5 6 7 8 7 6 6 6 8 10 12 14 16 16 15 16 15 15 14 14 14 14 14 14
12 12 11 11 11 12 12 11 11 11 10 10 10 11 11 10 11 11 11 11 10 10 10 10 10 9 10 10 9 9 10 11 12 11 10 9 8 9 10 10 8 7 8 7 6 7 8 8 8 7 8 5 5 8 4 5 5 7 7 6 8 6 6 7 9 6 6 7 9 12 11 10 12 11 14 17 16 16 15 15 14 15 15 15 15
12 13 12 13 12 11 11 11 11 10 9 10 11 11 11 11 11 11 11 11 11 10 10 9 9 10 11 10 10 10 11 11 11 11 9 9 8 9 9 7 7 7 9 7 5 7 7 8 9 10 7 7 4 5 1 1 4 6 6 6 9 8 8 7 9 9 7 7 8 8 9 10 10 12 13 13 15 15 14 13 14 14 16 15 15
11 12 12 12 11 12 11 11 11 10 10 11 10 11 11 12 11 12 12 12 11 11 11 10 9 10 10 10 10 11 12 15 16 14 12 11 8 10 10 8 8 9 9 7 6 7 8 8 10 8 8 8 8 6 6 7 9 12 3 7 9 9 6 6 9 8 7 7 8 7 8 8 8 8 8 7 8 11 11 14 9 14 16 15 15
12 12 11 12 12 13 12 12 11 10 11 10 13 18 16 12 12 11 10 11 11 11 11 10 9 10 11 10 11 16 16 17 17 17 17 17 16 13 11 8 10 9 9 8 7 7 8 9 10 10 10 11 10 8 9 10 8 4 4 6 8 8 3 8 7 7 7 7 8 9 10 6 8 8 7 8 7 7 6 7 8 10 13 15 15
13 12 12 13 13 13 13 13 13 11 11 11 17 16 18 19 14 11 11 11 10 10 10 11 11 11 10 11 10 12 14 14 15 18 18 19 19 19 19 17 13 11 10 10 10 9 9 10 10 9 10 12 11 9 9 10 6 9 9 6 8 5 7 8 12 5 6 9 9 9 11 7 7 9 8 8 7 7 6 8 13 15 15 16 16
13 12 13 14 14 13 12 12 13 12 12 15 17 17 18 19 17 13 10 10 9 10 10 11 11 10 10 10 10 9 10 12 12 12 15 18 19 19 20 19 19 18 16 13 12 10 10 11 11 11 10 11 12 8 9 8 10 7 6 5 7 8 9 10 10 11 4 10 10 9 12 3 6 8 9 8 7 7 9 12 15 16 16 15 16
11 12 13 13 13 13 12 13 13 13 12 16 17 18 18 19 19 17 11 10 10 11 11 11 12 11 10 10 10 10 10 15 13 12 11 12 16 20 19 19 19 19 19 20 19 16 11 11 12 13 11 11 12 12 10 10 4 6 5 7 8 10 11 11 12 11 7 8 6 7 11 7 7 8 10 8 8 8 9 12 16 16 16 16 16
13 13 13 14 13 13 13 13 13 12 13 15 17 18 18 19 19 16 13 12 11 11 12 12 11 12 12 11 11 11 10 10 10 12 12 12 12 11 11 12 13 17 19 21 20 21 18 14 13 15 13 10 14 12 9 5 6 8 8 12 10 11 12 15 15 12 3 8 8 4 8 5 6 7 10 9 8 8 8 12 16 16 16 16 16
14 14 14 14 13 13 13 12 12 12 12 16 17 18 19 19 18 15 12 12 11 12 12 12 12 12 11 11 12 13 11 10 10 12 12 12 12 12 12 12 13 14 14 14 13 14 14 14 15 17 17 13 14 13 9 7 10 11 12 14 13 12 11 9 9 8 6 8 8 7 13 5 6 7 10 8 7 9 7 10 15 16 17 17 17
12 12 12 12 13 13 12 12 13 14 13 17 17 18 19 18 17 11 11 12 13 13 13 12 12 11 11 12 12 12 12 12 14 17 16 13 11 13 14 14 13 13 13 14 15 16 16 15 15 17 17 16 16 14 12 10 8 8 10 10 7 5 8 11 15 9 10 7 11 10 9 8 6 8 8 7 7 8 7 7 12 16 17 17 17
13 13 14 13 12 12 13 13 14 14 13 15 17 18 18 18 13 10 11 11 12 13 14 13 11 11 11 12 12 12 12 12 15 17 18 16 13 14 14 14 14 13 14 7 13 19 21 21 23 23 23 22 21 20 18 16 12 9 9 10 12 10 11 14 15 11 10 7 8 11 9 10 6 8 7 6 8 9 8 9 8 14 18 17 16
14 15 13 12 12 12 13 14 14 14 14 14 17 17 18 18 17 12 11 11 12 13 13 12 11 11 12 17 15 13 13 13 16 18 18 15 13 14 14 15 16 16 13 6 8 11 19 23 24 25 25 24 23 23 22 17 15 13 11 16 16 10 14 14 15 12 7 6 7 10 7 12 4 7 7 2 2 5 8 7 8 10 14 14 16
14 12 11 11 11 11 12 13 15 16 14 13 16 17 19 19 17 11 10 10 12 12 11 12 11 11 11 12 17 17 15 15 18 17 18 16 14 14 14 14 16 17 12 8 12 12 10 10 12 13 16 18 18 17 17 21 20 17 16 18 16 13 15 17 14 10 8 8 6 12 9 7 6 7 8 2 7 6 6 8 9 9 8 8 9
Wind_Direction
180 190 167 199 202 211 208 223 230 235 213 255 233 264 284 293 294 281 283 46 357 311 219 247 226 209 193 196 170 142 144 140 149 152 163 186 231 201 185 188 188 183 179 180 176 173 174 171 171 166 162 161 161 159 155 152 150 151 152 156 153 161 159 162 173 169 178 186 283 284 314 311 317 313 308 309 313 312 322 321 334 338 335 329 338
186 178 174 196 196 206 203 218 217 218 186 231 241 247 269 307 316 315 316 336 153 277 95 273 264 215 203 199 179 160 155 152 158 161 165 181 208 231 188 189 191 188 185 184 184 182 180 178 180 175 176 173 172 172 168 167 167 169 173 173 178 180 187 180 200 208 249 277 293 305 312 316 310 306 324 315 314 313 309 326 327 321 328 333 337
181 180 185 185 190 196 207 201 224 213 190 232 264 239 269 264 254 238 252 290 340 95 351 2 307 288 215 189 173 148 153 151 148 150 164 182 203 230 207 191 193 191 189 189 189 184 185 189 190 190 184 186 186 184 183 183 183 183 187 189 192 200 200 209 234 237 237 258 273 270 284 283 281 288 296 295 299 309 315 316 330 342 335 337 332
186 178 183 181 193 205 201 195 218 211 198 212 250 265 249 252 258 262 247 57 333 55 107 118 301 288 204 172 154 157 155 154 153 162 170 179 196 211 237 206 198 196 195 194 193 190 188 192 196 193 197 203 201 199 196 197 197 200 200 204 210 211 215 226 232 245 249 247 255 264 267 277 284 287 297 298 310 313 313 323 325 336 333 328 332
200 189 179 183 191 197 206 218 217 208 201 198 210 235 254 283 310 26 5 31 23 7 42 37 15 321 18 156 149 156 152 144 155 163 177 180 190 194 210 234 219 200 201 202 199 201 196 192 196 201 198 202 214 211 206 213 215 213 212 216 223 224 230 234 242 245 251 263 261 261 266 287 309 329 335 332 338 321 320 328 332 332 329 332 338
192 195 176 178 187 192 204 220 213 204 195 177 182 188 218 256 261 342 327 24 348 345 29 24 350 324 73 141 140 152 149 149 168 174 168 181 182 181 185 232 242 220 201 206 205 207 206 203 202 204 207 209 212 218 210 217 220 221 226 225 226 238 239 251 263 283 285 267 271 293 310 318 319 310 305 321 334 329 331 319 330 336 334 337 340
195 183 179 174 184 194 208 218 201 186 185 202 179 193 206 225 241 254 323 351 351 355 81 71 15 324 329 134 155 151 153 164 173 160 173 184 178 184 174 193 229 247 209 228 212 213 208 206 208 209 210 217 218 221 224 223 231 233 235 232 240 239 239 242 248 245 256 288 292 297 299 313 316 335 319 314 309 320 319 321 317 326 334 336 338
184 177 171 179 184 194 210 209 195 179 195 191 172 194 214 238 253 191 239 290 310 317 62 73 86 293 312 121 160 157 163 174 180 169 175 169 185 184 174 184 190 196 205 215 233 231 215 211 211 212 218 226 227 228 242 248 207 248 191 264 263 264 253 244 243 242 249 272 287 311 296 293 305 284 285 310 307 307 306 319 325 332 335 341 339
171 174 171 179 186 200 207 194 186 187 188 195 198 201 190 217 251 226 171 237 259 280 355 62 58 288 329 122 163 160 177 186 184 173 146 167 186 188 180 188 204 210 204 195 219 240 237 218 215 213 217 226 233 237 227 238 257 231 226 223 251 243 248 254 267 278 259 265 277 276 282 292 284 272 293 291 294 308 320 328 332 335 337 334 333
165 171 175 180 187 197 196 184 181 180 191 190 216 195 208 200 223 255 207 181 207 230 287 33 66 348 42 114 161 165 185 196 166 156 152 174 190 191 195 187 208 211 194 191 204 223 249 231 224 221 223 225 231 239 228 245 250 250 231 233 242 247 259 262 235 256 274 272 267 263 272 272 274 274 268 285 304 313 321 327 331 332 335 337 343
164 170 169 179 183 193 186 184 174 175 180 196 210 206 214 219 213 249 243 200 225 224 193 116 69 57 79 93 154 165 184 184 160 144 140 188 182 193 160 208 211 211 191 179 189 208 220 244 264 265 254 237 232 237 247 246 250 258 262 261 256 265 255 257 273 247 244 254 260 263 263 278 288 290 294 295 305 320 327 330 334 336 342 352 357
172 171 173 175 175 184 184 174 168 163 178 183 209 200 204 212 230 209 246 298 153 138 132 97 53 44 65 63 79 152 175 165 130 112 153 185 184 160 200 206 228 224 193 179 185 195 208 221 225 211 217 246 236 237 247 249 254 260 262 249 256 266 266 253 250 254 251 254 258 255 263 277 288 293 307 318 326 336 341 351 357 5 13 22 32
178 171 175 173 175 179 174 173 168 175 182 197 196 201 207 205 204 202 202 244 349 64 98 105 99 47 27 51 44 15 282 100 115 107 200 195 100 269 215 196 231 229 208 170 182 188 199 212 221 193 205 228 254 255 245 248 251 263 264 270 271 261 244 243 251 246 247 253 255 253 255 262 275 302 306 319 333 344 353 5 9 23 25 43 44
179 179 176 171 167 179 182 179 174 184 195 193 192 201 198 206 176 187 275 198 246 193 153 114 35 137 117 17 14 2 339 39 311 266 238 233 157 210 233 226 221 222 180 171 192 191 193 202 206 194 216 214 233 248 298 282 289 271 261 271 268 257 254 241 242 246 248 260 263 263 253 243 265 295 310 332 347 350 5 11 16 27 36 43 37
186 179 176 181 174 174 190 184 182 178 175 187 186 195 196 201 192 178 240 309 251 198 154 135 151 133 132 98 64 58 329 352 308 276 233 221 193 214 216 236 231 197 181 180 209 214 200 190 197 206 210 214 228 237 228 230 221 242 249 296 318 274 254 234 227 237 241 249 275 289 358 250 256 272 285 306 326 4 1 5 13 30 28 33 33
189 182 181 181 176 184 179 187 190 183 180 182 186 196 195 216 208 201 140 225 303 288 162 152 128 127 38 99 201 118 79 276 238 263 229 221 202 216 211 225 230 191 170 200 208 216 224 187 207 214 212 212 215 225 227 232 243 242 239 223 239 298 273 240 229 228 224 235 240 224 240 257 252 265 275 278 299 327 342 356 20 20 19 28 32
189 186 182 186 182 179 179 191 188 191 184 188 188 198 196 200 193 185 187 182 238 286 334 127 152 152 134 86 52 100 212 238 154 268 310 229 231 211 213 215 216 210 206 221 197 203 206 215 224 223 227 219 215 214 217 241 262 275 259 238 213 213 250 255 233 223 226 229 221 217 224 228 212 235 253 249 271 277 318 342 354 353 356 360 3
190 189 189 180 185 183 180 182 190 190 192 197 198 180 197 199 201 194 203 209 165 152 307 152 175 178 167 153 164 170 201 233 118 249 345 248 263 239 226 220 207 212 222 221 218 219 207 227 218 229 223 218 211 207 211 219 240 256 254 251 223 199 223 221 227 221 217 213 210 205 198 199 204 228 230 236 228 231 232 258 313 332 326 327 332
191 190 191 186 183 184 182 185 189 190 192 181 199 203 200 206 190 186 212 184 130 190 221 254 13 263 201 195 160 181 154 129 207 93 140 317 346 226 238 238 220 219 223 227 225 215 231 224 223 229 227 214 206 204 204 215 225 222 230 225 233 213 206 209 214 217 211 208 202 199 200 202 213 225 215 240 245 242 255 266 276 297 313 313 315
187 189 191 189 182 186 184 180 186 192 183 192 205 210 198 216 195 207 198 186 181 185 219 190 172 266 182 239 337 63 143 106 148 169 161 169 264 325 258 211 229 236 230 231 222 220 227 231 227 230 234 223 210 203 204 210 219 226 229 224 223 217 210 199 200 212 213 210 200 203 208 211 213 220 221 230 246 246 253 261 267 276 285 295 299
189 186 190 191 189 186 183 181 185 191 193 199 211 204 203 201 205 203 209 206 188 193 170 210 195 223 130 334 49 15 359 37 111 91 136 121 266 225 247 341 229 251 239 229 231 219 216 224 225 220 227 232 216 208 202 203 213 218 222 224 218 214 208 198 200 210 213 212 207 207 214 217 218 219 222 226 234 242 246 251 257 260 262 272 279
189 186 190 193 195 187 185 188 190 189 195 200 204 205 209 209 210 207 205 210 197 184 198 201 198 208 194 165 168 81 357 21 26 77 47 102 170 211 205 183 213 251 224 232 225 227 216 218 229 228 221 227 221 210 200 206 210 210 221 221 218 213 207 202 203 210 212 211 211 211 212 217 219 220 222 224 228 235 242 249 253 257 262 266 273
182 188 192 193 197 194 191 193 189 190 195 195 204 207 209 208 212 211 210 209 204 200 214 203 198 197 192 174 192 179 179 183 216 210 145 140 88 269 250 212 213 249 262 225 224 226 219 216 223 229 223 223 221 210 207 210 211 215 213 218 221 217 208 204 205 211 211 212 213 214 215 214 217 220 222 225 230 237 244 248 253 260 267 271 275
183 184 195 196 196 200 198 190 192 192 199 196 204 206 207 206 208 209 217 216 214 202 207 201 198 203 206 199 210 204 197 179 200 170 165 194 172 193 200 205 308 239 281 282 235 218 218 220 224 226 225 221 221 213 211 207 217 218 214 216 218 219 216 209 207 210 215 211 215 217 220 221 221 223 225 228 233 236 242 248 255 265 275 283 290
189 193 199 194 194 197 199 198 200 199 197 195 206 204 204 203 211 215 215 211 208 205 209 213 195 193 211 206 202 198 211 226 156 173 148 137 160 162 236 144 203 262 265 136 237 233 216 225 219 225 226 223 224 217 213 210 215 220 215 219 216 219 220 219 213 212 217 217 216 220 225 227 229 229 228 230 234 237 242 249 254 262 270 279 285
190 199 193 189 195 201 199 201 199 194 195 200 204 207 202 205 207 215 219 217 203 204 212 217 209 219 197 195 208 207 225 202 193 151 154 130 149 182 189 278 207 257 314 291 295 195 267 227 220 218 222 225 225 219 218 216 218 223 219 213 221 219 221 222 221 217 217 221 219 221 225 230 233 235 236 236 235 230 228 235 246 255 266 274 280
197 196 177 186 195 196 201 200 197 195 194 198 205 206 208 209 209 215 222 208 205 202 211 204 215 220 211 210 217 220 227 206 186 201 168 179 166 172 154 179 278 295 272 270 292 229 236 269 216 215 215 219 220 220 219 219 221 218 220 216 218 221 219 222 225 223 221 222 223 223 226 229 233 237 239 241 240 241 240 238 240 246 252 260 264
196 176 188 186 189 196 199 204 198 195 197 198 200 202 205 208 216 210 223 205 203 206 211 202 217 216 215 218 211 235 225 217 203 204 198 190 180 154 165 165 177 254 315 290 274 264 221 231 268 222 214 215 221 216 220 221 227 225 221 220 219 224 222 221 224 226 224 224 226 227 228 230 233 236 240 243 246 246 245 243 238 240 245 248 249
188 186 185 189 191 191 197 201 199 200 200 201 200 203 200 206 213 212 218 214 205 212 206 204 217 211 214 210 213 227 232 218 217 212 210 200 201 182 177 176 171 177 233 259 260 243 283 203 225 252 206 215 219 216 216 220 226 218 217 220 222 223 224 222 223 226 227 226 227 230 231 232 234 236 239 242 244 244 244 244 237 234 237 239 239
187 187 185 189 192 194 197 201 201 198 204 203 203 204 199 208 215 216 214 203 215 219 216 211 215 204 212 217 213 227 235 216 222 217 206 204 199 195 203 200 173 189 193 216 268 214 248 270 215 246 218 214 212 219 211 224 223 216 218 221 223 225 226 223 223 225 229 230 230 231 232 234 236 237 238 240 241 243 244 244 241 236 235 234 234
186 183 184 190 191 197 197 202 199 203 203 205 204 203 199 209 213 220 213 202 213 223 222 210 219 197 210 221 218 231 229 226 231 228 224 204 207 197 206 191 208 200 187 184 253 273 192 234 245 237 223 218 211 217 221 225 221 213 220 221 225 227 226 228 226 226 228 231 232 233 234 235 236 237 238 238 240 241 242 241 241 240 236 234 232
194 189 188 192 193 197 202 201 202 204 203 207 202 203 200 210 211 216 217 203 213 223 229 220 219 204 211 221 223 225 228 226 238 234 230 220 200 200 205 203 210 206 185 189 213 259 195 211 236 249 228 221 203 212 229 233 224 218 223 224 226 227 227 231 231 229 229 230 233 234 235 236 236 237 238 239 238 238 238 235 233 235 235 234 232
189 192 195 197 196 200 201 204 205 204 205 206 203 201 202 210 212 214 213 206 216 225 223 230 225 218 217 223 229 228 213 221 232 237 235 230 211 213 207 205 221 206 188 198 221 258 275 223 228 237 247 198 238 208 225 230 232 224 221 228 225 223 224 225 229 229 227 227 230 233 235 236 236 236 237 237 237 236 235 233 234 234 234 234 231
187 197 200 200 201 201 203 207 207 207 206 206 202 199 205 209 214 211 213 211 219 225 214 226 223 223 221 228 237 231 210 224 232 233 232 232 221 221 221 207 222 222 200 196 230 232 264 240 257 260 268 190 233 194 209 222 235 219 221 226 222 219 222 223 225 232 227 226 227 230 233 235 236 236 237 238 236 235 234 233 231 230 231 231 229
195 199 202 203 203 203 207 209 208 209 208 207 204 202 208 209 211 214 213 213 217 221 218 223 221 216 223 228 237 232 211 224 236 238 234 233 228 227 235 216 226 228 208 208 214 240 251 262 209 237 226 212 210 230 219 225 230 213 220 226 223 222 223 219 222 231 231 228 228 228 230 233 235 236 237 237 235 233 231 229 227 225 225 226 226
200 205 204 205 204 205 210 212 209 210 208 209 206 206 209 208 212 214 214 215 218 221 221 224 220 212 219 225 233 228 216 222 235 236 235 233 232 234 239 234 225 232 219 202 218 234 247 257 253 214 229 212 244 247 239 234 232 228 220 233 230 231 229 225 223 229 232 229 230 229 230 231 233 234 235 235 232 229 227 224 221 220 220 222 224
207 204 207 204 207 208 211 212 212 211 211 208 209 211 212 211 212 214 215 216 219 222 223 224 219 217 220 223 231 224 219 226 236 236 231 228 229 229 241 239 232 234 224 208 220 224 249 255 266 234 225 238 249 248 218 225 249 246 245 231 224 225 230 230 228 232 236 234 234 233 231 230 230 231 232 231 228 226 223 220 217 216 217 218 221
207 207 205 205 208 212 215 214 213 215 211 210 212 213 213 213 214 217 218 219 220 221 224 225 223 219 222 226 230 223 221 225 232 232 230 230 226 230 237 238 234 229 229 227 211 222 233 253 260 278 231 236 268 245 218 205 226 247 256 251 250 234 227 240 235 233 227 226 227 233 234 234 234 232 230 230 228 224 222 218 215 213 213 216 218
207 209 208 209 213 215 218 215 216 215 213 212 215 216 216 214 215 217 221 223 223 223 224 223 223 222 225 227 226 222 224 228 232 231 231 232 228 233 232 235 234 225 234 229 214 221 230 249 257 247 264 243 217 258 238 211 226 224 233 245 258 234 225 225 242 236 229 235 236 230 226 219 219 220 224 228 228 224 220 217 214 212 212 213 214
211 211 211 211 215 216 219 218 220 216 214 216 218 218 216 215 216 219 220 222 224 226 228 225 221 223 226 227 227 223 226 230 231 235 226 233 232 239 238 234 235 231 238 235 217 223 233 240 247 258 243 259 248 243 282 162 249 260 225 218 244 244 231 227 230 229 226 222 235 234 232 233 237 231 232 231 232 231 224 219 216 214 214 212 213
212 214 214 214 216 219 220 220 221 217 217 219 218 216 215 217 216 221 220 222 224 226 228 227 223 224 226 228 228 228 227 231 231 233 229 224 224 233 239 223 229 230 239 239 229 225 239 241 255 252 258 258 253 251 249 230 227 244 193 198 240 249 238 241 245 225 225 220 234 233 233 214 223 226 221 226 231 227 225 216 214 212 216 213 212
212 212 214 215 218 219 220 221 221 219 220 222 221 215 213 214 215 219 220 222 223 226 228 228 227 224 227 227 231 230 229 231 232 233 234 231 227 227 235 219 226 229 235 240 236 233 238 246 246 252 254 254 256 241 246 245 245 260 230 205 229 245 233 254 269 237 212 221 236 240 240 213 214 231 217 225 234 217 216 205 216 211 216 215 212
212 212 211 215 218 219 218 221 222 220 222 224 221 214 215 215 213 216 218 222 222 225 226 227 228 227 228 229 234 235 232 233 233 233 234 234 233 234 237 233 222 218 229 231 237 233 237 242 247 244 246 256 255 249 243 252 240 231 235 219 234 238 228 242 255 258 190 199 225 240 250 215 196 228 224 223 222 214 205 210 214 213 213 211 210
214 211 213 216 219 218 219 221 223 223 225 225 220 215 214 215 213 217 217 220 220 222 225 227 230 230 230 229 230 233 233 231 231 234 236 238 238 237 237 238 238 232 225 222 231 237 232 242 247 240 242 247 254 244 249 241 244 239 238 233 227 229 238 239 245 248 216 181 212 225 247 200 181 222 236 223 216 212 208 208 209 209 211 211 209
212 212 216 216 219 218 219 221 223 224 228 224 219 216 215 214 214 215 222 218 219 223 223 226 229 230 230 231 233 232 235 232 232 235 236 238 236 237 241 243 245 241 239 235 232 234 237 239 245 251 233 245 251 245 233 240 219 231 227 233 231 231 232 241 245 250 237 189 195 228 247 221 175 213 233 228 211 211 212 211 211 207 208 209 206
213 216 216 218 218 218 219 221 224 227 227 226 216 216 216 214 213 207 224 223 224 225 224 225 227 229 228 229 232 238 234 228 228 230 234 239 242 238 235 236 239 243 240 237 238 241 242 242 246 252 247 223 246 246 239 213 198 223 225 239 228 235 233 235 238 240 249 133 186 205 259 224 177 206 232 232 213 219 212 208 208 208 207 207 204
212 214 215 216 218 219 219 219 225 228 230 224 216 214 215 213 211 203 222 226 231 232 230 227 227 227 226 226 231 237 236 230 228 226 229 234 237 242 242 238 235 239 238 234 230 233 236 237 243 248 253 243 245 249 241 209 213 220 223 235 231 232 240 254 263 241 231 174 173 174 248 225 164 200 232 224 218 225 214 212 209 208 207 205 202
214 215 218 217 218 218 217 218 222 230 231 220 214 212 211 211 200 202 217 225 230 235 236 232 230 229 226 225 228 234 236 234 231 224 225 230 236 241 245 247 248 243 241 230 228 230 233 234 237 243 248 248 246 247 239 223 218 222 239 247 244 230 236 244 248 227 230 172 182 191 237 239 173 194 230 218 209 228 217 216 210 207 209 205 201
212 213 216 214 216 215 215 216 221 227 232 221 211 209 207 203 189 209 214 223 231 235 238 236 233 231 228 225 226 232 234 235 232 223 223 221 236 240 244 249 249 250 251 231 219 228 234 236 240 243 248 251 252 251 248 233 222 210 230 245 241 226 236 248 253 239 234 162 199 197 221 250 171 196 226 215 204 220 215 213 209 208 209 206 200
212 214 214 215 214 214 214 217 217 222 230 223 207 206 201 193 191 203 211 218 229 232 239 239 236 236 233 228 226 229 233 236 229 223 221 213 231 237 243 249 254 253 254 234 240 230 227 232 236 240 244 248 250 253 252 242 230 221 225 239 243 226 239 241 250 247 240 186 193 175 193 238 169 200 209 269 228 233 217 211 205 212 206 207 203
214 213 212 215 216 216 217 218 217 218 230 224 203 202 198 193 194 207 207 217 228 232 233 239 237 237 239 233 228 228 232 234 230 225 220 210 228 233 238 245 253 257 253 234 239 241 240 236 243 245 252 249 248 249 250 245 232 228 231 241 247 234 239 243 245 252 261 251 162 170 207 246 202 227 185 173 235 234 199 201 204 203 195 193 197